User: anonymous   Login
Location: Unspecified
(0.0000°N, 0.0000°E)
Time: 05:15:38
(UTC+00:00)
Language:

NAVSTAR 64 (USA 206) - Orbit

View from above orbital plane
View from above orbital plane
View from above satellite
View from above satellite

Ground track
Ground track

The orbit data is extracted from the following two-line orbital elements,

1 35752U 09043A   17086.67137729 +.00000031 +00000-0 +00000-0 0  9996
2 35752 054.2421 162.8225 0047922 028.8799 310.0031 02.00558846055797
Epoch (UTC): 27 March 2017 16:06:46
Eccentricity: 0.0047922
inclination: 54.2421°
perigee height: 20055 km
apogee height: 20310 km
right ascension of ascending node: 162.8225°
argument of perigee: 28.8799°
revolutions per day: 2.00558846
mean anomaly at epoch: 310.0031°
orbit number at epoch: 5579

The dashed part of the orbit path shows where the satellite is in the earth's shadow,  

DLR